Change the Weather History Date:

Tuesday, June 18, 2013

  Actual Average Record
Temperature  
Mean Temperature 45 °F 43 °F  
Max Temperature 50 °F 47 °F 59 °F (1988)
Min Temperature 39 °F 39 °F 27 °F (1974)
Degree Days  
Heating Degree Days 20 22  
Month to date heating degree days 445 430  
Since 1 June heating degree days 445 430  
Since 1 July heating degree days 11403 10551  
Cooling Degree Days 0    
Month to date cooling degree days 0  
Year to date cooling degree days 0  
Since 1 June cooling degree days 0  
Moisture  
Dew Point 42 °F    
Average Humidity 0    
Maximum Humidity 0    
Minimum Humidity 0    
Precipitation  
Precipitation 0.04 in 0.05 in 0.48 in (2009)
Month to date precipitation 1.00 0.75  
Year to date precipitation 8.18 6.91  
Snow  
Snow 0.00 in 0.00 in 0.00 in (2014)
Month to date snowfall 0.0 0.0  
Since 1 June snowfall 0.0 0.0  
Since 1 July snowfall 72.7 59.8  
Snow Depth 0.00 in    
Sea Level Pressure  
Sea Level Pressure 30.06 in    
Wind  
Wind Speed 6 mph (NNW)    
Max Wind Speed 18 mph    
Max Gust Speed 21 mph    
Visibility 5 miles    
Events Fog , Rain    
T = Trace of Precipitation, MM = Missing Value Source: NWS Daily Summary

Daily Weather History Graph

Daily Weather History Graph

Search for Another Location

Airport or City:

Trip Planner

Search our weather history database for the weather conditions in past years. The results will help you decide how hot, cold, wet, or windy it might be!

Date:

Astronomy

Jun. 18, 2013 Rise Set
Actual Time 6:24 AM AKDT 12:20 AM AKDT
Civil Twilight 5:15 AM AKDT 1:29 AM AKDT
Nautical Twilight 3:54 AM AKDT 2:49 AM AKDT
Astronomical Twilight Sun does not rise Sun does not rise
Moon 6:30 PM AKDT (6/18) 3:38 AM AKDT (6/18)
Length of Visible Light 20h 14m
Length of Day
17h 55m
Waxing Gibbous, 72% of the Moon is Illuminated
Jun 18
Waxing Gibbous
Jun 23
Full
Jun 29
Last Quarter
Jul 7
New
Jul 15
First Quarter

Hourly Weather History & Observations

Time (AKDT) Temp. Windchill Dew Point Humidity Pressure Visibility Wind Dir Wind Speed Gust Speed Precip Events Conditions
12:28 AM 41.0 °F - 41.0 °F 100% 30.09 in 1.5 mi Calm Calm - N/A   Overcast
12:44 AM 41.0 °F - 41.0 °F 100% 30.09 in 3.0 mi Calm Calm - N/A   Overcast
12:53 AM 41.0 °F - 41.0 °F 100% 30.11 in 3.0 mi Calm Calm - N/A   Overcast
1:41 AM 41.0 °F - 41.0 °F 100% 30.09 in 2.5 mi Calm Calm - N/A   Overcast
1:53 AM 41.0 °F - 39.9 °F 96% 30.09 in 1.8 mi Calm Calm - N/A   Overcast
2:53 AM 39.9 °F - 39.9 °F 100% 30.11 in 0.8 mi Calm Calm - 0.00 in Rain Light Rain
3:06 AM 39.2 °F - 39.2 °F 100% 30.09 in 0.5 mi Calm Calm - 0.00 in Fog , Rain Light Rain
3:37 AM 41.0 °F - 41.0 °F 100% 30.10 in 1.0 mi Calm Calm - 0.00 in Rain Light Rain
3:53 AM 41.0 °F - 41.0 °F 100% 30.09 in 2.5 mi Calm Calm - 0.00 in Rain Light Rain
4:49 AM 41.0 °F - 41.0 °F 100% 30.10 in 1.8 mi Calm Calm - 0.00 in Rain Light Rain
4:53 AM 41.0 °F - 41.0 °F 100% 30.10 in 1.8 mi Calm Calm - 0.00 in Rain Light Rain
5:00 AM 41.0 °F - 41.0 °F 100% 30.10 in 2.0 mi Calm Calm - 0.01 in Rain Light Rain
5:07 AM 41.0 °F - 41.0 °F 100% 30.09 in 1.0 mi Calm Calm - 0.01 in Rain Light Rain
5:16 AM 41.0 °F - 41.0 °F 100% 30.09 in 0.8 mi Calm Calm - 0.01 in Rain Light Rain
5:31 AM 41.0 °F - 41.0 °F 100% 30.08 in 1.0 mi Calm Calm - 0.01 in Rain Light Rain
5:53 AM 41.0 °F - 41.0 °F 100% 30.09 in 2.0 mi Calm Calm - 0.01 in Rain Light Rain
6:08 AM 41.0 °F - 41.0 °F 100% 30.09 in 1.5 mi Calm Calm - 0.00 in Rain Light Rain
6:25 AM 41.0 °F - 41.0 °F 100% 30.09 in 1.8 mi Calm Calm - 0.00 in Rain Light Rain
6:27 AM 41.0 °F - 41.0 °F 100% 30.09 in 2.0 mi Calm Calm - 0.00 in Rain Light Rain
6:38 AM 41.0 °F - 41.0 °F 100% 30.09 in 2.5 mi Calm Calm - 0.01 in Rain Light Rain
6:53 AM 42.1 °F - 42.1 °F 100% 30.09 in 2.5 mi Calm Calm - 0.01 in Rain Light Rain
7:10 AM 42.8 °F - 42.8 °F 100% 30.09 in 4.0 mi Calm Calm - 0.00 in Rain Light Rain
7:53 AM 42.1 °F - 42.1 °F 100% 30.09 in 10.0 mi Calm Calm - 0.00 in   Overcast
8:08 AM 42.8 °F - 42.8 °F 100% 30.08 in 10.0 mi Calm Calm - N/A   Overcast
8:53 AM 43.0 °F 41.3 °F 43.0 °F 100% 30.09 in 5.0 mi NNW 3.5 mph - 0.02 in Rain Light Rain
9:53 AM 44.1 °F 40.8 °F 43.0 °F 96% 30.10 in 10.0 mi NNE 5.8 mph - 0.00 in   Overcast
10:14 AM 44.6 °F 41.4 °F 42.8 °F 93% 30.08 in 10.0 mi NNE 5.8 mph - N/A   Overcast
10:53 AM 45.0 °F 42.6 °F 44.1 °F 97% 30.09 in 10.0 mi North 4.6 mph - N/A   Overcast
11:53 AM 45.0 °F 41.2 °F 44.1 °F 97% 30.08 in 6.0 mi North 6.9 mph - N/A   Overcast
12:53 PM 46.9 °F - 45.0 °F 93% 30.08 in 10.0 mi North 4.6 mph - N/A   Overcast
1:53 PM 48.0 °F - 45.0 °F 89% 30.08 in 10.0 mi NNE 3.5 mph - N/A   Overcast
2:53 PM 48.0 °F - 45.0 °F 89% 30.05 in 10.0 mi North 4.6 mph - N/A   Overcast
3:53 PM 48.0 °F - 45.0 °F 89% 30.05 in 10.0 mi NNW 8.1 mph - N/A   Overcast
4:53 PM 48.9 °F - 44.1 °F 83% 30.04 in 10.0 mi NNW 8.1 mph - N/A   Overcast
5:24 PM 50.0 °F - 44.6 °F 82% 30.04 in 10.0 mi North 4.6 mph - N/A   Overcast
5:53 PM 48.9 °F - 44.1 °F 83% 30.04 in 10.0 mi North 9.2 mph - N/A   Overcast
6:49 PM 46.4 °F 41.1 °F 42.8 °F 87% 30.03 in 10.0 mi NNW 11.5 mph - N/A   Overcast
6:53 PM 46.9 °F - 43.0 °F 86% 30.03 in 10.0 mi NNW 9.2 mph - N/A   Overcast
7:53 PM 46.9 °F - 43.0 °F 86% 30.01 in 10.0 mi NNW 10.4 mph - N/A   Overcast
8:53 PM 45.0 °F 39.7 °F 42.1 °F 90% 30.01 in 10.0 mi NNW 10.4 mph - N/A   Overcast
9:23 PM 42.8 °F 37.0 °F 42.8 °F 100% 30.00 in 4.0 mi NW 10.4 mph - N/A   Overcast
9:45 PM 42.8 °F 36.6 °F 42.8 °F 100% 30.00 in 1.8 mi NNW 11.5 mph - N/A   Overcast
9:53 PM 43.0 °F 36.0 °F 42.1 °F 97% 30.00 in 0.8 mi NNW 13.8 mph - N/A   Overcast
10:06 PM 42.8 °F 37.0 °F 42.8 °F 100% 29.99 in 1.0 mi NNW 10.4 mph - N/A   Overcast
10:35 PM 42.8 °F 37.5 °F 42.8 °F 100% 29.99 in 0.8 mi NNW 9.2 mph - N/A   Overcast
10:53 PM 41.0 °F 35.2 °F 41.0 °F 100% 30.00 in 0.8 mi NNW 9.2 mph - N/A   Overcast
11:09 PM 41.0 °F 36.4 °F 41.0 °F 100% 29.99 in 1.2 mi NNW 6.9 mph - N/A   Overcast
11:22 PM 41.0 °F 36.4 °F 41.0 °F 100% 29.99 in 0.5 mi NW 6.9 mph - N/A Fog Fog
11:53 PM 39.9 °F 32.5 °F 39.9 °F 100% 29.99 in 0.5 mi NNW 12.7 mph - N/A Fog Fog